Location: T. Spence Memorial Observatory
(32.7356°N, 82.2098°W)
Time: 03:59:32
(UTC-04:00)

Daily predictions for brighter satellites

Satellite Brightness Start Highest point End
(mag) Time Altitude Azimuth Time Altitude Azimuth Time Altitude Azimuth
Terra 3.1 00:09:58 35° WNW 00:09:58 35° WNW 00:13:26 10° NNW
Meteor 2-3 Rocket 4.3 00:17:03 52° NE 00:17:03 52° NE 00:21:26 10° NNE
Cosmos 2263 Rocket 4.5 00:29:48 13° ENE 00:29:48 13° ENE 00:30:48 10° NE
Lacrosse 4 Rocket 3.7 00:38:15 10° NW 00:40:03 23° NW 00:40:03 23° NW
Cosmos 2074 Rocket 4.3 00:45:00 64° NW 00:45:00 64° NW 00:50:36 10° N
ATLAS 3B R/B 3.0 00:40:57 10° NW 00:46:35 53° WNW 00:46:35 53° WNW
SL-16 R/B 3.3 00:42:24 10° NNW 00:46:17 38° WNW 00:46:17 38° WNW
Cosmos 2333 Rocket 4.4 00:47:17 10° WNW 00:49:33 14° W 00:49:33 14° W
USA 238 DEB 3.8 00:55:39 10° NNW 01:02:06 73° N 01:02:06 73° N
COSMOS 2455 4.2 00:57:23 10° NW 01:01:03 30° WNW 01:01:03 30° WNW
USA 238 3.8 00:55:45 10° NNW 01:02:13 73° NNE 01:02:13 73° NNE
Cosmos 1943 4.5 01:03:52 10° N 01:08:08 33° NE 01:08:08 33° NE
Cosmos 2154 Rocket 4.4 01:17:41 61° NNW 01:17:41 61° NNW 01:22:48 10° N
SeaSat 1 4.1 01:23:17 29° NW 01:23:17 29° NW 01:25:43 10° NNW
CZ-4C R/B 3.0 01:26:09 10° NNW 01:33:26 67° ENE 01:33:37 67° ENE
CZ-2C R/B 4.2 01:47:42 44° NE 01:47:42 44° NE 01:52:02 10° N
NOSS 3-4 (A) 4.2 01:54:26 48° NW 01:54:26 48° NW 02:00:30 10° NNE
NOSS 3-4 (C) 4.1 01:54:33 49° NW 01:54:33 49° NW 02:00:35 10° NNE
NOSS 3-2 (A) 3.9 01:50:28 10° NNW 01:58:10 80° ENE 01:58:20 80° E
SL-8 Rocket 4.4 02:00:20 61° NNW 02:00:20 61° NNW 02:05:31 10° N
Cosmos 1844 Rocket 4.3 02:08:12 26° ENE 02:08:12 26° ENE 02:11:25 10° NE
Cosmos 2263 Rocket 3.2 02:11:29 40° NNW 02:11:29 40° NNW 02:15:46 10° N
Cosmos 2218 Rocket 4.3 02:14:09 61° NNW 02:14:09 61° NNW 02:19:24 10° N
Cosmos 2366 rocket 4.3 02:24:58 58° NNW 02:24:58 58° NNW 02:30:04 10° N
CZ-2C R/B 4.2 02:28:27 10° NNW 02:31:36 25° NW 02:31:36 25° NW
Cosmos 2278 Rocket 3.8 02:36:48 25° E 02:36:48 25° E 02:40:38 10° NE
Cosmos 407 Rocket 4.5 02:32:21 10° N 02:36:34 42° NE 02:36:34 42° NE
COSMOS 2406 3.6 02:41:20 10° NNW 02:46:47 58° NE 02:46:47 58° NE
Cosmos 1727 Rocket 4.4 02:46:41 10° NNW 02:51:46 53° NW 02:51:46 53° NW
Iridium 4 Rocket 4.3 02:53:48 10° N 02:57:15 46° NNW 02:57:15 46° NNW
Cosmos 1934 Rocket 4.1 03:08:09 60° ESE 03:08:38 62° E 03:14:41 10° NNE
CENTAUR R/B 3.6 03:03:47 10° NNW 03:11:37 58° ENE 03:19:46 10° SE
NPP 3.7 03:08:06 10° NNE 03:13:04 75° NE 03:13:04 75° NE
Cosmos 1954 Rocket 4.4 03:08:51 10° N 03:13:57 56° ENE 03:13:58 56° ENE
Okean 1 Rocket 4.2 03:16:19 41° N 03:16:19 41° N 03:19:17 10° N
CZ-4C R/B 4.5 03:16:01 10° WNW 03:18:45 19° W 03:18:45 19° W
Okean 1-7 Rocket 4.3 03:20:58 10° N 03:24:24 51° N 03:24:24 51° N
CZ-2D R/B 3.8 03:22:43 10° NE 03:27:11 25° E 03:28:56 22° SE
Cosmos 489 Rocket 4.4 03:21:17 10° NNW 03:27:33 82° ENE 03:28:37 63° SSE
Meteor 2-14 Rocket 4.3 03:27:36 70° SSE 03:28:16 78° E 03:34:20 10° N
ERS-2 3.8 03:25:54 10° N 03:28:00 32° N 03:28:00 32° N
Cosmos 1000 Rocket 4.3 03:24:36 10° N 03:30:43 70° W 03:30:54 70° WSW
Cosmos 1025 Rocket 3.9 03:29:06 10° N 03:33:09 45° ENE 03:33:09 45° ENE
Cosmos 1455 Rocket 4.5 03:36:21 30° ESE 03:36:54 31° E 03:40:49 10° NNE
Meteor 2-21 Rocket 4.3 03:37:34 69° WSW 03:38:03 74° W 03:44:10 10° N
ARIANE 5 R/B 3.1 03:37:18 10° NNE 03:42:07 48° E 03:42:54 44° SE
IRS-1C 4.0 03:39:09 10° N 03:44:29 74° WNW 03:44:44 72° WSW
Cosmos 1420 Rocket 4.1 03:45:14 59° WNW 03:45:14 59° WNW 03:50:28 10° N
Cosmos 1536 3.4 03:47:37 56° N 03:47:37 56° N 03:50:52 10° N
Cosmos 1605 Rocket 3.9 03:47:06 59° S 03:48:22 88° W 03:54:40 10° N
Cosmos 1821 Rocket 4.3 03:48:54 47° W 03:49:32 48° W 03:55:42 10° N
GP-B 4.2 03:45:43 10° NNW 03:48:49 35° NW 03:48:49 35° NW
Cosmos 1844 Rocket 3.8 03:49:51 30° WNW 03:50:19 30° WNW 03:55:17 10° N
CBERS-1 4.4 03:47:49 10° N 03:52:44 47° WNW 03:52:47 47° WNW
SL-16 R/B 3.3 03:50:35 11° SE 03:56:17 50° ENE 04:02:14 10° N
ATLAS 2A CENTAUR R/B 3.4 03:54:19 44° SW 03:56:28 54° S 04:27:45 10° ESE
Meteor 1-19 Rocket 4.2 03:50:57 10° N 03:56:49 89° W 03:58:32 49° S
Cosmos 2123 Rocket 3.9 03:52:19 10° N 03:58:39 78° W 04:00:32 48° S
Cosmos 1140 Rocket 3.3 03:53:33 10° NNW 03:58:42 81° WSW 03:59:21 67° S
Resurs 1-4 Rocket 2.6 03:56:07 10° NNE 04:01:19 55° E 04:03:07 37° SSE
Atlas Centaur 2 4.3 04:00:57 22° SSE 04:02:38 23° SSE 04:08:56 10° E
Cosmos 1544 Rocket 3.4 04:02:40 85° WSW 04:02:44 86° W 04:07:09 10° N
SL-08 R/B 4.2 04:08:12 35° WNW 04:08:12 35° WNW 04:11:55 10° NNW
ADEOS 3.8 04:03:27 10° N 04:08:30 50° WNW 04:09:11 47° W
Cosmos 1633 3.7 04:10:16 35° NW 04:10:16 35° NW 04:12:46 10° N
COSMOS 2487 3.8 04:07:13 10° NNW 04:09:22 33° NW 04:09:22 33° NW
Meteor 1-11 Rocket 4.4 04:11:07 38° W 04:12:01 40° WNW 04:17:36 10° N
ATLAS 5 CENTAUR R/B 2.8 04:08:24 10° NNW 04:14:31 65° ENE 04:20:57 10° SE
Skynet4D Del rocket 4.0 04:18:03 40° S 04:18:03 40° S 04:22:41 10° ESE
USA 161 3.6 04:20:42 20° NNW 04:20:42 20° NNW 04:21:50 10° NNW
Cosmos 2278 Rocket 3.0 04:18:39 31° W 04:19:55 35° WNW 04:25:06 10° N
Cosmos 2297 3.7 04:20:31 44° SW 04:22:16 70° WNW 04:27:57 10° NNE
Cosmos 1850 Rocket 4.0 04:17:59 10° NNW 04:23:11 63° WSW 04:24:56 40° SSW
Cosmos 2173 Rocket 4.2 04:19:29 23° S 04:23:18 67° E 04:29:25 10° NNE
Centaur AC-125 3.8 04:25:53 23° SE 04:25:53 23° SE 04:28:51 10° ESE
Yuri Rocket 3.9 04:23:06 38° WSW 04:24:57 50° SSW 04:29:55 10° ESE
Cosmos 1400 Rocket 3.7 04:26:04 34° WNW 04:26:04 34° WNW 04:29:20 10° NNW
Cosmos 1741 Rocket 4.0 04:21:40 10° NNW 04:26:50 60° WSW 04:28:39 38° SSW
ASC 2 Rocket 4.3 04:27:55 29° SSE 04:27:55 29° SSE 04:31:03 10° SE
Meteor 1-23 Rocket 4.2 04:25:28 10° NNW 04:31:04 63° W 04:33:39 32° SSW
Cosmos 1892 Rocket 3.7 04:27:29 10° NNW 04:31:41 51° W 04:32:13 48° WSW
Cosmos 1459 Rocket 4.0 04:31:33 24° S 04:35:37 88° E 04:41:57 10° N
Meteor 1-5 Rocket 4.4 04:33:54 34° SSW 04:36:22 61° W 04:42:04 10° N
Cosmos 1302 Rocket 4.5 04:33:34 23° S 04:36:40 57° ESE 04:41:47 10° NNE
Cosmos 1802 Rocket 4.0 04:34:30 20° S 04:38:55 79° E 04:45:03 10° N
CZ-2D R/B 3.6 04:34:58 10° NNE 04:38:59 68° ESE 04:40:56 29° S
BREEZE-M DEB (TANK) 2.5 04:42:38 36° WNW 04:43:13 42° NNW 04:45:55 10° NE
Cosmos 2082 Rocket 2.6 04:37:33 10° NNW 04:43:14 64° ENE 04:48:51 10° SSE
CZ-4B R/B 4.0 04:38:53 10° NNE 04:44:22 49° E 04:49:45 10° S
Cosmos 2100 Rocket 4.0 04:42:55 25° SSW 04:46:44 70° W 04:53:03 10° N
USA 234 3.2 04:40:23 10° SSE 04:46:48 60° SW 04:53:15 10° NW
MTI 3.7 04:49:07 33° S 04:50:27 79° WSW 04:53:44 10° NNW
Cosmos 614 Rocket 4.4 04:45:45 10° NW 04:50:29 38° W 04:52:24 28° SW
PSLV R/B 3.3 04:51:38 41° W 04:52:41 72° NNW 04:56:03 10° ENE
APEX 4.1 04:53:09 23° WNW 04:53:17 23° WNW 04:55:57 10° N
IRS-1D 4.4 04:49:34 10° N 04:54:01 32° WNW 04:55:57 24° WSW
Cosmos 2084 4.1 04:53:34 21° S 04:55:43 42° ESE 04:59:22 10° NE
Cosmos 1315 Rocket 4.0 04:55:24 25° W 04:56:08 27° WNW 04:59:35 10° NNW
SME Rocket 3.1 04:56:02 29° SSW 04:57:31 45° W 05:01:21 10° NNW
Cosmos 1500 3.6 04:54:58 16° S 04:57:54 62° E 05:01:46 10° NNE
Meteor 2-4 Rocket 4.4 04:53:47 10° NNW 04:58:24 30° W 05:00:20 24° SW
Cosmos 1602 Rocket 3.4 04:57:22 10° N 05:01:43 72° W 05:05:39 12° S
Cosmos 1515 4.5 04:58:05 10° N 05:01:50 52° E 05:05:34 10° SSE
CENTAUR R/B 3.8 04:55:19 10° NW 05:02:02 29° WSW 05:08:53 10° SSW
Cosmos 1346 Rocket 3.2 05:00:34 10° N 05:04:36 65° E 05:08:32 10° SSE
CZ-2D R/B 3.0 05:02:20 10° N 05:07:12 34° WNW 05:10:16 19° WSW
Okean-O 4.1 05:07:27 10° NNE 05:11:33 36° E 05:15:37 10° SSE
Cosmos 1174 3.1 05:08:46 10° NNW 05:12:02 60° WSW 05:14:58 10° SSE
Cosmos 1975 3.5 05:12:53 22° SW 05:14:55 37° W 05:18:39 10° NNW
Cosmos 1486 Rocket 4.1 05:11:13 10° NNW 05:16:34 83° ENE 05:21:54 10° SSE
NOSS 8 (F) 4.4 05:14:26 21° SSW 05:16:42 88° WNW 05:20:14 10° NNE
Okean O Rocket 1.8 05:12:58 10° N 05:17:13 55° WNW 05:20:33 16° SSW
Cosmos 1626 Rocket 3.9 05:14:27 10° NNW 05:18:38 44° W 05:22:39 11° SSW
CZ-4B R/B 3.1 05:14:56 10° N 05:19:28 88° WNW 05:23:50 10° SSW
Tsikada Rocket 4.4 05:13:27 10° N 05:19:35 67° E 05:25:46 10° SSE
UNKNOWN OBJECT B 4.3 05:16:54 10° NNW 05:20:13 24° WNW 05:22:14 17° WSW
ARIANE 5 R/B 4.3 05:17:53 10° NNW 05:20:49 16° WNW 05:23:15 12° W
Cosmos 1833 Rocket 2.6 05:15:18 10° NNW 05:20:55 77° WSW 05:26:30 10° SSE
Cosmos 2098 Rocket 2.8 05:19:46 10° S 05:23:09 75° E 05:27:24 10° N
BREEZE-M DEB (TANK) 3.5 05:20:04 14° SW 05:27:29 77° SE 05:30:31 10° NE
DNEPR-1 R/B 3.9 05:27:11 10° NNW 05:32:28 81° ENE 05:36:51 10° SSE
SL-16 R/B 3.8 05:35:41 10° SW 05:40:04 21° W 05:44:36 10° NW
Resurs 1-4 Rocket 3.9 05:37:39 10° NNW 05:40:37 15° WNW 05:43:35 10° W
MOZ.5/SAFIR/RUBIN 5/SL-8 3.9 05:36:48 10° S 05:41:28 55° W 05:46:10 10° NNW
Thor Agena Rocket 3.6 05:37:00 10° S 05:42:07 61° WSW 05:47:11 10° NNW
USA 129 4.0 05:46:19 10° W 05:46:26 11° W 05:46:55 10° W
Cosmos 1606 Rocket 3.7 05:43:46 10° SSW 05:48:07 59° W 05:52:27 10° N
Cosmos 2369 Rocket 2.4 05:43:33 10° SSW 05:49:14 79° ESE 05:54:55 10° NNE
Atlas Centaur 2 3.6 05:43:45 10° SW 05:51:54 51° SSE 05:59:47 10° E
Meteor 1-31 Rocket 4.2 05:50:06 10° NNE 05:53:51 40° E 05:57:34 10° S
Cosmos 2233 Rocket 4.0 05:48:59 10° S 05:55:13 75° W 06:01:26 10° N
ATLAS 5 CENTAUR R/B 3.7 05:54:40 10° WNW 05:58:49 19° WSW 06:03:06 10° SSW
ADEOS II 2.2 05:54:41 10° NNE 05:59:58 86° ESE 06:05:14 10° SSW
